• In Germany
  • List of Countries
  • For 7 days
  • Water Temperature
  • Satellite Maps
  • Weather Map
  • Weather Widgets
  • user-avatar
    Login

    Hourly Weather Bugunda

    Today, 22 September, Saturday

    Time Temperature Precipitation Wind Pressure Humidity
    00:00 +3°C° 0 mm 4 mps 695 mmHg 93%
    01:00 +3°C° 0 mm 4 mps 695 mmHg 92%
    02:00 +3°C° 0 mm 3 mps 695 mmHg 92%
    03:00 +2°C° 0 mm 3 mps 696 mmHg 92%
    04:00 +1°C° 0 mm 4 mps 696 mmHg 91%
    05:00 +1°C° 0 mm 4 mps 696 mmHg 91%
    06:00 +3°C° 0 mm 4 mps 696 mmHg 89%
    07:00 +3°C° 0 mm 4 mps 697 mmHg 87%
    08:00 +5°C° 0 mm 5 mps 697 mmHg 79%
    09:00 +6°C° 0 mm 5 mps 697 mmHg 72%
    10:00 +8°C° 0 mm 5 mps 697 mmHg 65%
    11:00 +9°C° 0 mm 5 mps 697 mmHg 58%
    12:00 +10°C° 0 mm 5 mps 697 mmHg 56%
    13:00 +11°C° 0 mm 4 mps 697 mmHg 54%
    14:00 +12°C° 0 mm 4 mps 697 mmHg 51%
    15:00 +12°C° 0 mm 4 mps 697 mmHg 54%
    16:00 +11°C° 0 mm 3 mps 697 mmHg 57%
    17:00 +11°C° 0 mm 3 mps 697 mmHg 61%
    18:00 +9°C° 0 mm 2 mps 698 mmHg 68%
    19:00 +7°C° 0 mm 2 mps 698 mmHg 75%
    20:00 +6°C° 0 mm 1 mps 698 mmHg 86%
    21:00 +6°C° 0 mm 1 mps 698 mmHg 87%
    22:00 +5°C° 0 mm 1 mps 698 mmHg 88%
    23:00 +5°C° 0 mm 1 mps 699 mmHg 89%

    Tomorrow, 23 September, Sunday

    Time Temperature Precipitation Wind Pressure Humidity
    00:00 +5°C° 0 mm 1 mps 699 mmHg 88%
    01:00 +5°C° 0 mm 1 mps 699 mmHg 87%
    02:00 +5°C° 0 mm 1 mps 699 mmHg 87%
    03:00 +4°C° 0 mm 0 mps 699 mmHg 87%
    04:00 +4°C° 0 mm 0 mps 699 mmHg 88%
    05:00 +3°C° 0 mm 0 mps 699 mmHg 88%
    06:00 +4°C° 0 mm 0 mps 699 mmHg 84%
    07:00 +5°C° 0 mm 0 mps 699 mmHg 80%
    08:00 +6°C° 0 mm 0 mps 700 mmHg 77%
    09:00 +8°C° 0 mm 0 mps 700 mmHg 69%
    10:00 +11°C° 0 mm 0 mps 700 mmHg 62%
    11:00 +13°C° 0 mm 0 mps 700 mmHg 55%
    12:00 +14°C° 0 mm 1 mps 699 mmHg 53%
    13:00 +14°C° 0 mm 1 mps 699 mmHg 50%
    14:00 +15°C° 0 mm 1 mps 698 mmHg 48%
    15:00 +14°C° 0 mm 1 mps 698 mmHg 52%
    16:00 +12°C° 0 mm 0 mps 698 mmHg 55%
    17:00 +12°C° 0 mm 0 mps 697 mmHg 59%
    18:00 +10°C° 0 mm 0 mps 697 mmHg 64%
    19:00 +7°C° 0 mm 0 mps 697 mmHg 70%
    20:00 +5°C° 0 mm 0 mps 697 mmHg 76%
    21:00 +5°C° 0 mm 0 mps 697 mmHg 78%
    22:00 +4°C° 0 mm 0 mps 698 mmHg 80%
    23:00 +4°C° 0 mm 0 mps 698 mmHg 81%

    Day after tomorrow, 24 September, Monday

    Time Temperature Precipitation Wind Pressure Humidity
    00:00 +3°C° 0 mm 0 mps 698 mmHg 83%
    01:00 +3°C° 0 mm 0 mps 698 mmHg 85%
    02:00 +3°C° 0 mm 0 mps 698 mmHg 87%
    03:00 +2°C° 0 mm 0 mps 698 mmHg 88%
    04:00 +2°C° 0 mm 0 mps 697 mmHg 89%
    05:00 +2°C° 0 mm 0 mps 697 mmHg 90%
    06:00 +3°C° 0 mm 0 mps 698 mmHg 85%
    07:00 +4°C° 0 mm 0 mps 698 mmHg 79%
    08:00 +6°C° 0 mm 0 mps 698 mmHg 74%
    09:00 +8°C° 0 mm 0 mps 698 mmHg 68%
    10:00 +12°C° 0 mm 1 mps 698 mmHg 61%
    11:00 +14°C° 0 mm 1 mps 698 mmHg 54%
    12:00 +14°C° 0 mm 1 mps 697 mmHg 52%
    13:00 +15°C° 0 mm 1 mps 697 mmHg 50%
    14:00 +15°C° 0 mm 1 mps 696 mmHg 48%
    15:00 +14°C° 0 mm 1 mps 696 mmHg 53%
    16:00 +13°C° 0 mm 1 mps 696 mmHg 59%
    17:00 +13°C° 0 mm 1 mps 696 mmHg 64%
    18:00 +11°C° 0 mm 1 mps 696 mmHg 68%
    19:00 +10°C° 0 mm 1 mps 696 mmHg 71%
    20:00 +8°C° 0 mm 1 mps 696 mmHg 75%
    21:00 +8°C° 0 mm 1 mps 696 mmHg 77%
    22:00 +8°C° 0 mm 1 mps 696 mmHg 79%
    23:00 +7°C° 0 mm 1 mps 696 mmHg 81%

    25 September, Tuesday

    Time Temperature Precipitation Wind Pressure Humidity
    00:00 +7°C° 0 mm 1 mps 696 mmHg 81%
    01:00 +7°C° 0 mm 1 mps 696 mmHg 81%
    02:00 +6°C° 0 mm 0 mps 696 mmHg 82%
    03:00 +6°C° 0 mm 0 mps 696 mmHg 82%
    04:00 +6°C° 0 mm 0 mps 696 mmHg 83%
    05:00 +6°C° 0 mm 0 mps 696 mmHg 83%
    06:00 +6°C° 0 mm 0 mps 696 mmHg 81%
    07:00 +7°C° 0 mm 0 mps 696 mmHg 80%
    08:00 +8°C° 0 mm 0 mps 696 mmHg 78%
    09:00 +10°C° 0 mm 0 mps 696 mmHg 71%
    10:00 +12°C° 0 mm 0 mps 696 mmHg 63%
    11:00 +15°C° 0 mm 1 mps 696 mmHg 56%
    12:00 +16°C° 0 mm 1 mps 696 mmHg 53%
    13:00 +16°C° 0 mm 1 mps 695 mmHg 51%
    14:00 +16°C° 0 mm 1 mps 695 mmHg 48%
    15:00 +15°C° 0 mm 1 mps 695 mmHg 53%
    16:00 +14°C° 0 mm 1 mps 694 mmHg 58%
    17:00 +13°C° 0 mm 0 mps 694 mmHg 63%
    18:00 +12°C° 0 mm 1 mps 694 mmHg 68%
    19:00 +10°C° 0 mm 1 mps 694 mmHg 73%
    20:00 +9°C° 0 mm 1 mps 694 mmHg 78%
    21:00 +8°C° 0 mm 1 mps 694 mmHg 81%
    22:00 +8°C° 0 mm 1 mps 695 mmHg 84%
    23:00 +7°C° 0 mm 1 mps 695 mmHg 87%

    26 September, Wednesday

    Time Temperature Precipitation Wind Pressure Humidity
    00:00 +6°C° 0 mm 1 mps 694 mmHg 89%
    01:00 +6°C° 0 mm 1 mps 694 mmHg 91%
    02:00 +5°C° 0 mm 0 mps 694 mmHg 92%
    03:00 +4°C° 0 mm 0 mps 694 mmHg 93%
    04:00 +4°C° 0 mm 0 mps 694 mmHg 93%
    05:00 +4°C° 0 mm 0 mps 694 mmHg 93%
    06:00 +5°C° 0 mm 0 mps 694 mmHg 90%
    07:00 +6°C° 0 mm 0 mps 695 mmHg 87%
    08:00 +7°C° 0 mm 0 mps 695 mmHg 84%
    09:00 +9°C° 0 mm 0 mps 695 mmHg 76%
    10:00 +12°C° 0 mm 1 mps 694 mmHg 69%
    11:00 +15°C° 0 mm 1 mps 694 mmHg 62%
    12:00 +15°C° 0 mm 1 mps 694 mmHg 58%
    13:00 +16°C° 0 mm 2 mps 693 mmHg 55%
    14:00 +16°C° 0 mm 2 mps 693 mmHg 51%
    15:00 +15°C° 0 mm 2 mps 693 mmHg 56%
    16:00 +15°C° 0 mm 1 mps 692 mmHg 60%
    17:00 +14°C° 0 mm 1 mps 692 mmHg 65%
    18:00 +12°C° 0 mm 1 mps 692 mmHg 70%
    19:00 +11°C° 0 mm 1 mps 692 mmHg 75%
    20:00 +9°C° 0 mm 1 mps 692 mmHg 80%
    21:00 +8°C° 0 mm 1 mps 692 mmHg 82%
    22:00 +8°C° 0 mm 1 mps 692 mmHg 85%
    23:00 +7°C° 0 mm 1 mps 692 mmHg 88%

    27 September, Thursday

    Time Temperature Precipitation Wind Pressure Humidity
    00:00 +6°C° 0 mm 1 mps 692 mmHg 90%
    01:00 +6°C° 0 mm 1 mps 691 mmHg 91%
    02:00 +5°C° 0 mm 1 mps 691 mmHg 93%
    03:00 +5°C° 0 mm 1 mps 691 mmHg 94%
    04:00 +4°C° 0 mm 1 mps 691 mmHg 94%
    05:00 +4°C° 0 mm 1 mps 691 mmHg 95%
    06:00 +5°C° 0 mm 1 mps 691 mmHg 91%
    07:00 +6°C° 0 mm 1 mps 691 mmHg 88%
    08:00 +6°C° 0 mm 1 mps 691 mmHg 84%
    09:00 +7°C° 0 mm 2 mps 691 mmHg 77%
    10:00 +9°C° 0 mm 2 mps 691 mmHg 70%
    11:00 +12°C° 0 mm 2 mps 690 mmHg 63%
    12:00 +12°C° 0.1 mm 2 mps 690 mmHg 61%
    13:00 +13°C° 0.1 mm 2 mps 690 mmHg 59%
    14:00 +14°C° 0.1 mm 2 mps 689 mmHg 57%
    15:00 +13°C° 0.3 mm 1 mps 690 mmHg 62%
    16:00 +12°C° 0.3 mm 1 mps 690 mmHg 67%
    17:00 +12°C° 0.3 mm 1 mps 690 mmHg 72%
    18:00 +10°C° 0.1 mm 1 mps 690 mmHg 76%
    19:00 +8°C° 0.1 mm 1 mps 690 mmHg 80%
    20:00 +7°C° 0.1 mm 1 mps 691 mmHg 84%
    21:00 +6°C° 0.1 mm 1 mps 691 mmHg 86%
    22:00 +6°C° 0.1 mm 1 mps 691 mmHg 88%
    23:00 +5°C° 0.1 mm 1 mps 692 mmHg 90%
    Show more